Dewpoint
25 26 28 29 29 29 29 28 28 28 27 28 28 28 28 27 27 26 25 24 24 24 22 23 22 24 22 20 20 20 18 19 24 13 15 22 22 18 12 14 15 14 15
24 25 26 26 27 27 28 29 30 28 28 27 26 26 27 26 26 25 24 24 24 22 22 20 19 21 23 21 21 20 19 16 17 19 12 14 13 14 12 13 12 11 13
23 25 26 28 27 25 25 29 30 30 28 27 26 25 25 25 24 24 23 22 22 21 21 19 18 22 24 22 20 19 19 15 17 18 13 10 10 12 11 13 14 17 15
20 23 24 26 26 25 25 26 29 30 30 28 26 25 25 24 23 23 22 22 22 21 21 19 17 18 21 23 22 23 24 23 20 15 14 9 9 12 13 14 16 16 15
17 20 22 24 25 25 26 27 28 28 29 29 27 26 24 23 22 23 21 23 22 20 19 18 17 18 22 23 21 24 24 24 22 19 12 9 9 11 13 16 15 16 19
22 23 23 27 28 25 24 25 26 26 27 29 28 28 26 23 27 29 26 22 22 19 18 18 17 22 23 27 27 25 24 23 22 21 14 11 10 12 15 14 14 16 17
25 24 25 25 24 22 21 22 25 23 25 25 26 28 27 27 29 30 29 25 22 21 18 16 16 15 21 20 26 25 24 24 22 18 17 13 12 14 15 15 16 19 17
24 22 23 22 21 19 18 19 24 23 23 23 24 26 27 26 28 30 30 27 25 22 20 18 17 16 19 18 21 23 22 21 19 16 15 15 15 17 17 18 21 23 19
19 17 19 20 19 16 16 16 19 21 22 25 25 26 28 29 29 29 30 29 27 26 21 19 17 16 20 23 21 23 22 21 21 20 17 20 21 22 20 24 22 19 16
15 15 16 17 16 14 14 15 17 20 21 21 24 25 26 28 28 28 28 29 29 27 25 19 22 19 21 24 22 23 21 20 19 20 21 24 23 22 23 22 21 18 14
15 15 15 14 13 12 12 13 14 15 16 18 20 23 24 26 27 28 28 28 28 29 27 24 18 23 22 23 24 24 23 22 22 22 24 24 22 24 24 20 15 14 14
12 10 10 10 9 9 8 9 10 12 13 15 19 21 21 23 25 26 27 28 28 29 28 24 21 21 23 23 24 24 24 23 23 24 22 21 20 19 16 12 11 12 12
6 4 4 4 5 5 5 6 7 9 10 12 14 18 19 20 24 25 27 27 29 28 30 25 22 21 23 22 25 26 25 23 22 21 20 18 18 17 12 11 10 10 9
-0 -0 0 -0 1 1 2 2 4 5 7 10 13 17 20 20 21 23 24 25 29 29 31 26 23 22 22 25 25 28 26 21 21 19 18 17 16 13 11 10 9 9 8
-2 -2 -2 -2 -2 -2 -1 -0 1 4 6 8 11 16 19 20 22 23 23 24 27 28 26 25 23 23 23 24 25 24 23 20 18 18 17 14 12 10 8 8 8 8 7
-2 -3 -4 -4 -4 -4 -4 -4 3 7 10 12 14 15 16 20 24 23 24 25 27 30 23 22 21 21 22 23 24 21 19 17 17 15 14 12 11 9 9 9 8 7 6
-5 -4 -5 -4 -5 -5 -4 -4 -5 -1 7 9 12 15 17 23 23 27 26 26 26 29 22 21 21 21 23 23 21 16 15 16 16 14 12 11 10 9 9 8 7 6 5
-5 -5 -5 -5 -4 -4 -4 -4 -4 -4 -4 -0 7 13 18 25 28 29 30 27 25 26 24 21 22 22 23 21 19 17 16 14 14 13 11 10 10 9 8 7 6 5 5
-4 -4 -3 -3 -3 -3 -2 -2 -3 -3 -2 -1 3 8 14 20 21 24 30 26 23 24 23 21 22 23 21 21 17 16 14 13 12 10 9 8 8 7 6 6 5 4 3
-2 -2 -2 -2 -2 -2 -2 -1 -1 -1 0 1 4 8 17 18 19 23 28 25 24 26 24 21 21 19 18 16 16 13 12 10 9 8 7 6 5 6 4 4 4 3 3
-2 -1 -1 0 0 0 0 -0 -1 -1 1 3 6 14 17 18 18 21 25 24 24 26 20 17 16 16 15 14 12 10 9 7 6 5 4 4 3 3 4 3 3 3 2
-0 -1 -0 0 2 3 5 5 2 2 4 7 11 13 16 16 18 21 23 22 19 18 18 16 13 12 11 10 9 8 6 5 5 4 3 2 2 2 2 2 2 2 2
-2 -1 -0 1 2 4 5 7 6 7 9 10 10 11 11 11 11 11 10 11 12 11 11 9 7 7 7 8 9 8 5 4 4 4 2 1 1 1 1 1 1 0 1
-3 -2 -1 -0 0 0 2 3 2 2 3 3 3 3 3 4 3 3 4 5 6 6 6 5 5 4 4 5 6 6 5 4 4 4 3 1 -0 -0 0 -0 0 0 1
-4 -4 -3 -3 -2 -2 -1 -0 -0 1 1 0 -0 0 1 0 0 1 2 2 3 3 3 3 3 2 1 1 1 -0 3 2 0 -1 -1 -1 -1 -2 -1 -1 -0 1 2
-6 -6 -5 -5 -4 -4 -4 -4 -3 -2 -2 -2 -2 -2 -2 -2 -1 -1 -1 -0 -1 -0 0 0 1 -0 -1 -2 -4 -1 -1 -3 -7 -7 -6 -5 -4 -2 -2 -2 -2 1 2
Lifted_Index
10 10 10 10 11 11 10 10 10 11 11 11 11 12 12 13 13 13 13 12 12 13 14 15 15 16 16 16 16 16 16 16 15 15 17 18 19 20 20 21 21 20 20
11 11 10 11 11 11 10 10 10 10 10 11 11 11 11 12 12 12 12 12 12 12 13 14 15 16 16 15 15 15 15 16 15 15 16 17 19 20 20 20 20 20 20
14 13 12 12 12 11 11 11 11 11 11 10 10 10 10 11 11 11 12 12 12 12 12 13 14 15 15 15 15 14 15 15 16 15 15 16 17 19 19 19 19 19 19
15 15 14 14 14 14 13 13 13 12 12 11 11 10 10 10 11 11 11 12 12 12 12 12 12 13 14 15 15 14 14 15 15 15 14 15 16 17 17 17 17 17 17
16 16 16 16 16 16 16 15 15 14 13 12 11 11 10 10 10 11 11 12 11 11 11 11 12 12 13 14 15 15 14 14 14 14 14 14 14 15 16 16 16 16 15
17 16 16 17 17 17 17 17 17 16 16 14 13 12 11 11 11 11 11 12 12 11 11 11 11 12 13 14 15 15 15 15 14 14 14 14 14 15 16 16 16 15 14
17 17 17 17 17 17 17 17 17 17 17 17 16 14 12 11 11 11 12 12 12 12 11 11 11 11 12 13 14 15 15 15 15 15 15 15 15 16 16 16 16 15 15
16 16 16 17 17 17 17 17 17 18 18 18 17 16 15 13 12 11 11 11 11 11 11 12 11 11 11 12 13 14 15 16 16 17 17 17 18 18 17 17 16 16 16
14 14 15 15 16 16 16 17 17 17 17 18 18 18 17 15 13 11 11 10 9 9 10 12 12 11 11 12 12 13 14 15 16 17 18 19 19 19 19 18 17 16 16
13 13 14 14 14 15 15 16 16 17 17 17 18 18 17 17 15 13 11 10 9 9 9 11 12 13 13 13 13 13 13 15 16 17 18 19 19 19 19 19 18 17 16
13 13 13 14 14 15 15 15 16 16 16 16 17 17 17 17 16 15 13 10 9 9 10 11 12 14 14 14 14 14 14 15 16 17 18 18 18 18 18 19 20 19 18
13 14 14 15 15 15 15 15 15 15 15 15 15 16 16 16 16 16 14 12 10 10 11 12 13 14 14 15 15 15 16 17 17 17 17 17 17 17 18 20 21 22 21
14 14 15 15 16 17 17 17 16 16 15 15 15 15 15 15 15 15 14 13 11 11 13 14 14 14 15 15 16 17 17 17 17 17 17 17 17 17 19 21 22 22 22
14 15 16 17 18 19 20 20 20 18 17 16 15 15 15 14 14 14 14 13 11 12 13 15 15 15 15 16 17 18 18 17 17 18 18 17 17 18 20 21 21 21 20
17 18 20 21 21 22 23 23 23 22 21 19 18 17 16 15 15 15 14 13 12 12 13 14 14 14 16 16 17 18 19 18 18 18 18 18 18 19 20 20 20 20 19
21 22 23 24 24 24 24 24 24 24 24 23 21 20 18 17 16 15 15 13 12 12 13 13 12 13 15 16 17 17 18 18 19 19 18 18 19 19 20 20 20 19 18
24 24 25 25 25 25 25 24 24 24 23 23 22 21 19 17 16 15 15 14 13 12 13 13 13 13 15 17 17 17 18 18 19 19 18 19 19 19 19 19 19 19 19
24 24 25 25 25 25 25 24 24 23 21 20 20 19 17 16 14 14 14 14 13 13 13 14 14 14 15 17 18 18 18 19 19 19 19 19 19 19 18 18 19 19 19
23 24 24 24 24 24 23 23 23 22 21 19 18 17 16 14 13 13 13 13 13 13 13 14 15 15 16 17 17 18 18 19 19 19 19 19 19 18 18 19 19 19 19
23 23 23 22 22 21 21 21 21 20 19 18 17 16 15 14 12 12 12 12 12 13 14 14 15 16 16 16 17 17 18 18 19 19 19 19 19 19 19 19 20 20 20
23 22 21 20 19 18 18 18 18 18 17 17 16 15 14 13 12 11 11 11 12 13 14 14 15 15 16 16 17 17 17 18 18 19 19 19 19 19 20 20 20 20 20
22 21 20 19 18 17 17 17 16 16 16 15 15 14 14 12 11 11 11 11 12 13 14 14 14 15 15 16 17 17 17 18 18 19 19 19 20 20 20 20 20 19 19
21 21 20 19 18 17 17 16 16 15 15 15 14 14 13 12 11 11 11 11 11 12 13 13 13 14 15 16 17 18 18 18 18 19 19 19 19 20 20 20 19 19 18
19 19 19 19 18 18 17 17 16 16 15 14 14 13 13 12 11 11 11 11 11 12 12 13 14 14 15 16 17 18 18 19 19 19 19 19 19 20 20 19 19 18 18
18 18 18 18 18 18 17 17 16 16 15 15 14 13 13 12 12 11 11 12 12 12 13 13 14 15 15 16 17 18 18 18 19 19 20 20 20 19 19 19 19 18 18
17 17 17 17 17 18 18 17 17 16 15 15 14 14 13 12 12 12 12 12 12 13 13 14 15 15 16 17 17 18 18 18 19 20 20 20 20 19 19 19 19 18 18